Weather in Veraval

India     20°54′20″N   70°22′48″E
temp.,
°C
wind,
m/s
gust,
m/s
humid.,
%
clouds,
%
prec.,
mm/h
press.,
hPa
HPBL,
m
17 june, thu
thu1723:30+29sw6977100 0.6 1001816
02:30+29sw697995 0.3 1000672
05:30+29sw587985 0.6 1000674
08:30+30wsw886693 0.3 1001978
11:30+33wsw775846 0.5 10011354
14:30+33sw875443 0.3 10001546
17:30+31wsw765828 0.4 9991269
20:30+29sw67710 0.1 1001808
18 june, fri
fri1823:30+29wsw58762 0.3 1002733
02:30+28wsw697723 0.3 1000672
05:30+29wsw577294 0.9 1001784
08:30+30wsw676524 0.1 1002997
11:30+33wsw7753100 0.1 10021462
14:30+33wsw7754100 0.1 10011588
17:30+31sw6656100 0.1 10011306
20:30+29sw566899 0.1 1003931
19 june, sat
sat1923:30+28sw5673100 0.2 1004693
02:30+28sw587395 0.2 1002781
05:30+28sw5772100 0.3 1003724
08:30+30sw5761100 0.1 10051145
11:30+32wsw7852100 0.5 10041634
14:30+32wsw785272 0.2 10031558
17:30+31wsw776136 0.3 10031295
20:30+29wsw677122 0.1 1004917
20 june, sun
sun2023:30+28sw68757 0.3 1005839
02:30+28sw69745 0.2 1003914
05:30+28wsw697516 0.4 1004892
08:30+29wsw796313 0.4 10051174
11:30+32wsw795218 0.4 10061507
14:30+32wsw78517 0.0 10041535
17:30+31wsw78599 0.0 10041335
20:30+29wsw687030 0.1 1005972
21 june, mon
mon2123:30+28wsw68754 0.8 1006914
02:30+28wsw697714 0.4 1004803
05:30+28wsw59743 0.8 1005768
08:30+30w796176 0.3 10061089
11:30+32w895586 0.3 10071443
14:30+33w895132 0.0 10051678
17:30+32wsw88578 0.1 10051358
20:30+29wsw577373 0.1 1006768